[Iaude] MPEC C51: 2024 CQ [a=1.53,e=0.25,i=9.3,H=23.3]
    mpec at marsden.cfa.harvard.edu 
    mpec at marsden.cfa.harvard.edu
       
    Mon Feb  5 09:21:16 EST 2024
    
    
  
M.P.E.C. 2024-C51                              Issued 2024 February 5, 14:19 UT
     The Minor Planet Electronic Circulars contain information on unusual
         minor planets, routine data on comets and natural satellites,
         and occasional editorial announcements.  They are published
    on behalf of Division F of the International Astronomical Union by the
          Minor Planet Center, Smithsonian Astrophysical Observatory,
                          Cambridge, MA 02138, U.S.A.
			  
             Prepared using the Tamkin Foundation Computer Network
                              MPC at CFA.HARVARD.EDU
            URL https://www.minorplanetcenter.net/    ISSN 1523-6714
                                    2024 CQ                                     
Observations:
     K24C00Q* C2024 02 01.63717111 47 27.714+29 15 46.96         21.81wXEC051F52
     K24C00Q  C2024 02 01.64432611 47 28.002+29 15 35.75         21.38wXEC051F52
     K24C00Q  C2024 02 01.65148511 47 28.302+29 15 24.06         21.83wXEC051F52
     K24C00Q  C2024 02 01.65865911 47 28.598+29 15 12.56         21.79wXEC051F52
     K24C00Q KC2024 02 03.34228911 48 58.02 +28 30 11.5          21.6 GVEC051H21
     K24C00Q KC2024 02 03.34508611 48 58.14 +28 30 06.9          21.9 GVEC051H21
     K24C00Q KC2024 02 03.35068011 48 58.35 +28 29 57.9          21.5 GVEC051H21
     K24C00Q KC2024 02 03.35646111 48 58.54 +28 29 48.1          21.6 GVEC051H21
     K24C00Q KC2024 02 05.45349 11 50 29.34 +27 30 01.2          21.0 RVEC051691
     K24C00Q KC2024 02 05.46550 11 50 29.66 +27 29 39.9          21.4 RVEC051691
     K24C00Q KC2024 02 05.47750 11 50 29.91 +27 29 18.0          21.3 RVEC051691
     K24C00Q KC2024 02 05.50444511 50 30.462+27 28 27.30         20.53GVEC051I52
     K24C00Q KC2024 02 05.50753611 50 30.606+27 28 22.94         21.69GVEC051I52
     K24C00Q KC2024 02 05.51062911 50 30.714+27 28 16.82         21.85GVEC051I52
     K24C00Q KC2024 02 05.51372211 50 30.800+27 28 11.64         21.93GVEC051I52
Observer details:
691 Steward Observatory, Kitt Peak-Spacewatch.  Observer C. Lejoly.  0.9-m f/3
    reflector + CCD.
F52 Pan-STARRS 2, Haleakala.  Observers J. Herman, T. Lowe, P. Minguez, A.
    Schultz, I. Smith.  Measurers K. Chambers, T. de Boer, J. Fairlamb, H.
    Gao, M. Huber, C.-C. Lin, E. Magnier, Y. Ramanjooloo, R. Wainscoat, R.
    Weryk.  1.8-m Ritchey-Chretien + CCD.
H21 Astronomical Research Observatory, Westfield.  Observer R. Holmes.
    Measurers T. Linder, R. Holmes, L. Horn.  0.76-m f/3.0 astrograph + CCD.
I52 Steward Observatory, Mt. Lemmon Station.  Observer H. Groeller.  Measurers
    E. C. Beshore, D. Fay, J. B. Fazekas, D. C. Fuls, A. R. Gibbs, A. D.
    Grauer, H. Groeller, J. K. Hogan, R. A. Kowalski, S. M. Larson, G. J.
    Leonard, D. Rankin, R. L. Seaman, F. C. Shelly, K. W. Wierzchos.  1.0-m
    prime focus + CCD.
Orbital elements:
2024 CQ                                                  Earth MOID = 0.1583 AU
Epoch 2023 Sept. 13.0 TT = JDT 2460200.5                Bell                    
M 273.18123              (2000.0)            P               Q                  
n   0.51880154     Peri.  171.36949     -0.93896614     -0.34248075             
a   1.5339171      Node   348.44336     +0.30518374     -0.78582867             
e   0.2499145      Incl.    9.30615     +0.15876233     -0.51495654             
P   1.90           H   23.35          G   0.15           U   8                  
Residuals in seconds of arc
240201 F52  0.1-  0.1-    240203 H21  0.0   0.0     240205 691  0.4-  0.0
240201 F52  0.1-  0.1+    240203 H21  0.3+  0.2+    240205 I52 (1.2-  1.2-)
240201 F52  0.0   0.1-    240203 H21  0.2+  0.2-    240205 I52  0.3-  0.1+
240201 F52  0.0   0.0     240205 691  0.7-  0.0     240205 I52  0.1+  0.4-
240203 H21  0.4-  0.0     240205 691  0.1-  0.3+    240205 I52  0.3+  0.1+
Ephemeris:
2024 CQ                  a,e,i = 1.53, 0.25, 9                   q = 1.1506
Date    TT    R. A. (2000) Decl.     Delta      r    Elong.  Phase     V
2024 01 06    11 01 46.9 +36 24 11   0.3423  1.2217   127.4    39.8    23.0
...
2024 01 21    11 32 14.2 +33 18 52   0.2733  1.1880   133.2    37.1    22.4
...
2024 01 29    11 43 38.8 +30 43 34   0.2419  1.1740   137.3    34.7    22.1
...
2024 02 04    11 49 28.5 +28 12 04   0.2209  1.1655   140.9    32.2    21.8
2024 02 05    11 50 11.7 +27 43 26   0.2177  1.1643   141.6    31.8    21.7
2024 02 06    11 50 50.3 +27 13 45   0.2145  1.1631   142.3    31.2    21.7
...
2024 02 12    11 53 06.2 +23 52 06   0.1969  1.1570   146.9    27.7    21.4
...
2024 02 20    11 51 55.2 +18 14 02   0.1782  1.1520   154.5    21.7    21.0
...
2024 03 06    11 39 06.4 +04 31 00   0.1613  1.1521   171.9     7.0    20.2
M. P. C. Staff               (C) Copyright 2024 MPC           M.P.E.C. 2024-C51
    
    
More information about the Iaude
mailing list